Time,TemperatureF,DewpointF,PressureIn,WindDirection,WindDirectionDegrees,WindSpeedMPH,WindSpeedGustMPH,Humidity,HourlyPrecipIn,Conditions,Clouds,dailyrainin,SoftwareType,DateUTC
2013-11-29 00:02:00,-999.0,-99.9,30.18,North,-999,-999.0,-999.0,-999,0.00,,,0.00,weatherlink.com 1.10,2013-11-29 07:02:00,
2013-11-29 00:17:00,-999.0,-99.9,30.19,North,-999,-999.0,-999.0,-999,0.00,,,0.00,weatherlink.com 1.10,2013-11-29 07:17:00,
2013-11-29 00:32:00,-999.0,-99.9,30.19,North,-999,-999.0,-999.0,-999,0.00,,,0.00,weatherlink.com 1.10,2013-11-29 07:32:00,
2013-11-29 00:47:00,-999.0,-99.9,30.19,North,-999,-999.0,-999.0,-999,0.00,,,0.00,weatherlink.com 1.10,2013-11-29 07:47:00,
2013-11-29 01:02:00,-999.0,-99.9,30.19,North,-999,-999.0,-999.0,-999,0.00,,,0.00,weatherlink.com 1.10,2013-11-29 08:02:00,
2013-11-29 01:17:00,-999.0,-99.9,30.19,North,-999,-999.0,-999.0,-999,0.00,,,0.00,weatherlink.com 1.10,2013-11-29 08:17:00,
2013-11-29 01:32:00,-999.0,-99.9,30.19,North,-999,-999.0,-999.0,-999,0.00,,,0.00,weatherlink.com 1.10,2013-11-29 08:32:00,
2013-11-29 01:47:00,-999.0,-99.9,30.19,North,-999,-999.0,-999.0,-999,0.00,,,0.00,weatherlink.com 1.10,2013-11-29 08:47:00,
2013-11-29 02:02:00,-999.0,-99.9,30.19,North,-999,-999.0,-999.0,-999,0.00,,,0.00,weatherlink.com 1.10,2013-11-29 09:02:00,
2013-11-29 02:17:00,-999.0,-99.9,30.19,North,-999,-999.0,-999.0,-999,0.00,,,0.00,weatherlink.com 1.10,2013-11-29 09:17:00,
2013-11-29 02:33:00,-999.0,-99.9,30.20,North,-999,-999.0,-999.0,-999,0.00,,,0.00,weatherlink.com 1.10,2013-11-29 09:33:00,
2013-11-29 02:48:00,-999.0,-99.9,30.20,North,-999,-999.0,-999.0,-999,0.00,,,0.00,weatherlink.com 1.10,2013-11-29 09:48:00,
2013-11-29 03:03:00,-999.0,-99.9,30.20,North,-999,-999.0,-999.0,-999,0.00,,,0.00,weatherlink.com 1.10,2013-11-29 10:03:00,
2013-11-29 03:18:00,-999.0,-99.9,30.19,North,-999,-999.0,-999.0,-999,0.00,,,0.00,weatherlink.com 1.10,2013-11-29 10:18:00,
2013-11-29 03:33:00,-999.0,-99.9,30.19,North,-999,-999.0,-999.0,-999,0.00,,,0.00,weatherlink.com 1.10,2013-11-29 10:33:00,
2013-11-29 03:48:00,-999.0,-99.9,30.19,North,-999,-999.0,-999.0,-999,0.00,,,0.00,weatherlink.com 1.10,2013-11-29 10:48:00,
2013-11-29 04:03:00,-999.0,-99.9,30.19,North,-999,-999.0,-999.0,-999,0.00,,,0.00,weatherlink.com 1.10,2013-11-29 11:03:00,
2013-11-29 04:18:00,-999.0,-99.9,30.19,North,-999,-999.0,-999.0,-999,0.00,,,0.00,weatherlink.com 1.10,2013-11-29 11:18:00,
2013-11-29 04:33:00,-999.0,-99.9,30.20,North,-999,-999.0,-999.0,-999,0.00,,,0.00,weatherlink.com 1.10,2013-11-29 11:33:00,
2013-11-29 04:48:00,-999.0,-99.9,30.19,North,-999,-999.0,-999.0,-999,0.00,,,0.00,weatherlink.com 1.10,2013-11-29 11:48:00,
2013-11-29 05:03:00,-999.0,-99.9,30.19,North,-999,-999.0,-999.0,-999,0.00,,,0.00,weatherlink.com 1.10,2013-11-29 12:03:00,
2013-11-29 05:18:00,-999.0,-99.9,30.19,North,-999,-999.0,-999.0,-999,0.00,,,0.00,weatherlink.com 1.10,2013-11-29 12:18:00,
2013-11-29 05:33:00,-999.0,-99.9,30.19,North,-999,-999.0,-999.0,-999,0.00,,,0.00,weatherlink.com 1.10,2013-11-29 12:33:00,
2013-11-29 05:49:00,-999.0,-99.9,30.20,North,-999,-999.0,-999.0,-999,0.00,,,0.00,weatherlink.com 1.10,2013-11-29 12:49:00,
2013-11-29 06:04:00,-999.0,-99.9,30.19,North,-999,-999.0,-999.0,-999,0.00,,,0.00,weatherlink.com 1.10,2013-11-29 13:04:00,
2013-11-29 06:19:00,-999.0,-99.9,30.20,North,-999,-999.0,-999.0,-999,0.00,,,0.00,weatherlink.com 1.10,2013-11-29 13:19:00,
2013-11-29 06:34:00,-999.0,-99.9,30.20,North,-999,-999.0,-999.0,-999,0.00,,,0.00,weatherlink.com 1.10,2013-11-29 13:34:00,
2013-11-29 06:49:00,-999.0,-99.9,30.20,North,-999,-999.0,-999.0,-999,0.00,,,0.00,weatherlink.com 1.10,2013-11-29 13:49:00,
2013-11-29 07:04:00,-999.0,-99.9,30.21,North,-999,-999.0,-999.0,-999,0.00,,,0.00,weatherlink.com 1.10,2013-11-29 14:04:00,
2013-11-29 07:19:00,-999.0,-99.9,30.20,North,-999,-999.0,-999.0,-999,0.00,,,0.00,weatherlink.com 1.10,2013-11-29 14:19:00,
2013-11-29 07:34:00,-999.0,-99.9,30.21,North,-999,-999.0,-999.0,-999,0.00,,,0.00,weatherlink.com 1.10,2013-11-29 14:34:00,
2013-11-29 07:49:00,-999.0,-99.9,30.20,North,-999,-999.0,-999.0,-999,0.00,,,0.00,weatherlink.com 1.10,2013-11-29 14:49:00,
2013-11-29 08:04:00,-999.0,-99.9,30.20,North,-999,-999.0,-999.0,-999,0.00,,,0.00,weatherlink.com 1.10,2013-11-29 15:04:00,
2013-11-29 08:19:00,-999.0,-99.9,30.21,North,-999,-999.0,-999.0,-999,0.00,,,0.00,weatherlink.com 1.10,2013-11-29 15:19:00,
2013-11-29 08:34:00,-999.0,-99.9,30.21,North,-999,-999.0,-999.0,-999,0.00,,,0.00,weatherlink.com 1.10,2013-11-29 15:34:00,
2013-11-29 08:49:00,-999.0,-99.9,30.22,North,-999,-999.0,-999.0,-999,0.00,,,0.00,weatherlink.com 1.10,2013-11-29 15:49:00,
2013-11-29 09:04:00,-999.0,-99.9,30.22,North,-999,-999.0,-999.0,-999,0.00,,,0.00,weatherlink.com 1.10,2013-11-29 16:04:00,
2013-11-29 09:20:00,-999.0,-99.9,30.23,North,-999,-999.0,-999.0,-999,0.00,,,0.00,weatherlink.com 1.10,2013-11-29 16:20:00,
2013-11-29 09:35:00,-999.0,-99.9,30.22,North,-999,-999.0,-999.0,-999,0.00,,,0.00,weatherlink.com 1.10,2013-11-29 16:35:00,
2013-11-29 09:50:00,-999.0,-99.9,30.23,North,-999,-999.0,-999.0,-999,0.00,,,0.00,weatherlink.com 1.10,2013-11-29 16:50:00,
2013-11-29 10:05:00,-999.0,-99.9,30.23,North,-999,-999.0,-999.0,-999,0.00,,,0.00,weatherlink.com 1.10,2013-11-29 17:05:00,
2013-11-29 10:20:00,20.5,19.0,30.23,ENE,72,0.0,2.0,93,0.00,,,0.00,weatherlink.com 1.10,2013-11-29 17:20:00,
2013-11-29 10:35:00,21.3,20.0,30.23,East,84,0.0,0.0,94,0.00,,,0.00,weatherlink.com 1.10,2013-11-29 17:35:00,
2013-11-29 10:50:00,-999.0,-99.9,30.23,North,-999,-999.0,-999.0,-999,0.00,,,0.00,weatherlink.com 1.10,2013-11-29 17:50:00,
2013-11-29 11:05:00,-999.0,-99.9,30.22,North,-999,-999.0,-999.0,-999,0.00,,,0.00,weatherlink.com 1.10,2013-11-29 18:05:00,
2013-11-29 11:20:00,-999.0,-99.9,30.21,North,-999,-999.0,-999.0,-999,0.00,,,0.00,weatherlink.com 1.10,2013-11-29 18:20:00,
2013-11-29 11:35:00,24.6,23.0,30.20,North,349,0.0,4.0,92,0.00,,,0.00,weatherlink.com 1.10,2013-11-29 18:35:00,
2013-11-29 11:50:00,25.8,24.0,30.20,NW,313,0.0,4.0,91,0.00,,,0.00,weatherlink.com 1.10,2013-11-29 18:50:00,
2013-11-29 12:05:00,27.3,25.0,30.20,NW,313,1.0,3.0,90,0.00,,,0.00,weatherlink.com 1.10,2013-11-29 19:05:00,
2013-11-29 12:20:00,28.8,25.0,30.19,NW,313,0.0,3.0,87,0.00,,,0.00,weatherlink.com 1.10,2013-11-29 19:20:00,
2013-11-29 12:35:00,30.2,26.0,30.18,NW,304,2.0,3.0,84,0.00,,,0.00,weatherlink.com 1.10,2013-11-29 19:35:00,
2013-11-29 12:50:00,31.2,27.0,30.17,NW,304,0.0,3.0,83,0.00,,,0.00,weatherlink.com 1.10,2013-11-29 19:50:00,
2013-11-29 13:06:00,31.8,27.0,30.16,WNW,296,1.0,4.0,82,0.00,,,0.00,weatherlink.com 1.10,2013-11-29 20:06:00,
2013-11-29 13:21:00,32.6,27.0,30.16,NW,311,1.0,4.0,80,0.00,,,0.00,weatherlink.com 1.10,2013-11-29 20:21:00,
2013-11-29 13:36:00,32.7,27.0,30.15,NNW,336,0.0,4.0,80,0.00,,,0.00,weatherlink.com 1.10,2013-11-29 20:36:00,
2013-11-29 13:51:00,33.8,28.0,30.14,NW,316,3.0,5.0,79,0.00,,,0.00,weatherlink.com 1.10,2013-11-29 20:51:00,
2013-11-29 14:06:00,34.1,28.0,30.14,NW,320,1.0,6.0,79,0.00,,,0.00,weatherlink.com 1.10,2013-11-29 21:06:00,
2013-11-29 14:21:00,35.9,29.0,30.13,WNW,284,3.0,4.0,75,0.00,,,0.00,weatherlink.com 1.10,2013-11-29 21:21:00,
2013-11-29 14:36:00,37.1,29.0,30.14,West,277,0.0,4.0,72,0.00,,,0.00,weatherlink.com 1.10,2013-11-29 21:36:00,
2013-11-29 14:51:00,37.0,28.0,30.13,WNW,291,0.0,3.0,71,0.00,,,0.00,weatherlink.com 1.10,2013-11-29 21:51:00,
2013-11-29 15:06:00,36.9,28.0,30.13,WNW,298,3.0,4.0,71,0.00,,,0.00,weatherlink.com 1.10,2013-11-29 22:06:00,
2013-11-29 15:21:00,36.4,28.0,30.13,North,5,0.0,4.0,72,0.00,,,0.00,weatherlink.com 1.10,2013-11-29 22:21:00,
2013-11-29 15:36:00,36.3,28.0,30.13,West,263,0.0,1.0,72,0.00,,,0.00,weatherlink.com 1.10,2013-11-29 22:36:00,
2013-11-29 15:51:00,35.9,28.0,30.13,WNW,286,2.0,4.0,72,0.00,,,0.00,weatherlink.com 1.10,2013-11-29 22:51:00,
2013-11-29 16:06:00,34.9,27.0,30.12,West,277,0.0,3.0,74,0.00,,,0.00,weatherlink.com 1.10,2013-11-29 23:06:00,
2013-11-29 16:21:00,34.3,27.0,30.13,West,278,0.0,1.0,75,0.00,,,0.00,weatherlink.com 1.10,2013-11-29 23:21:00,
2013-11-29 16:36:00,33.8,27.0,30.13,West,278,0.0,0.0,76,0.00,,,0.00,weatherlink.com 1.10,2013-11-29 23:36:00,
2013-11-29 16:51:00,33.1,27.0,30.13,West,278,0.0,0.0,77,0.00,,,0.00,weatherlink.com 1.10,2013-11-29 23:51:00,
2013-11-29 17:06:00,32.4,26.0,30.14,West,278,0.0,0.0,78,0.00,,,0.00,weatherlink.com 1.10,2013-11-30 00:06:00,
2013-11-29 17:21:00,31.9,26.0,30.15,West,278,0.0,0.0,80,0.00,,,0.00,weatherlink.com 1.10,2013-11-30 00:21:00,
2013-11-29 17:36:00,32.0,27.0,30.15,West,278,0.0,0.0,81,0.00,,,0.00,weatherlink.com 1.10,2013-11-30 00:36:00,
2013-11-29 17:51:00,31.7,27.0,30.15,West,278,0.0,0.0,81,0.00,,,0.00,weatherlink.com 1.10,2013-11-30 00:51:00,
2013-11-29 18:06:00,31.3,27.0,30.15,West,279,1.0,3.0,83,0.00,,,0.00,weatherlink.com 1.10,2013-11-30 01:06:00,
2013-11-29 18:21:00,31.8,27.0,30.16,West,278,0.0,2.0,82,0.00,,,0.00,weatherlink.com 1.10,2013-11-30 01:21:00,
2013-11-29 18:36:00,31.4,27.0,30.16,West,278,0.0,4.0,82,0.00,,,0.00,weatherlink.com 1.10,2013-11-30 01:36:00,
2013-11-29 18:51:00,31.4,27.0,30.16,West,279,0.0,3.0,83,0.00,,,0.00,weatherlink.com 1.10,2013-11-30 01:51:00,
2013-11-29 19:06:00,31.4,27.0,30.17,West,279,2.0,3.0,83,0.00,,,0.00,weatherlink.com 1.10,2013-11-30 02:06:00,
2013-11-29 19:21:00,31.5,27.0,30.16,NNE,28,0.0,4.0,83,0.00,,,0.00,weatherlink.com 1.10,2013-11-30 02:21:00,
2013-11-29 19:36:00,32.1,27.0,30.16,NNE,28,1.0,3.0,81,0.00,,,0.00,weatherlink.com 1.10,2013-11-30 02:36:00,
2013-11-29 19:51:00,32.4,27.0,30.15,East,90,0.0,2.0,80,0.00,,,0.00,weatherlink.com 1.10,2013-11-30 02:51:00,
2013-11-29 20:06:00,32.4,27.0,30.16,ENE,59,0.0,3.0,81,0.00,,,0.00,weatherlink.com 1.10,2013-11-30 03:06:00,
2013-11-29 20:21:00,-999.0,-99.9,30.16,North,-999,-999.0,-999.0,-999,0.00,,,0.00,weatherlink.com 1.10,2013-11-30 03:21:00,
2013-11-29 20:36:00,-999.0,-99.9,30.16,North,-999,-999.0,-999.0,-999,0.00,,,0.00,weatherlink.com 1.10,2013-11-30 03:36:00,
2013-11-29 20:51:00,-999.0,-99.9,30.16,North,-999,-999.0,-999.0,-999,0.00,,,0.00,weatherlink.com 1.10,2013-11-30 03:51:00,
2013-11-29 21:07:00,-999.0,-99.9,30.16,North,-999,-999.0,-999.0,-999,0.00,,,0.00,weatherlink.com 1.10,2013-11-30 04:07:00,
2013-11-29 21:21:00,-999.0,-99.9,30.16,North,-999,-999.0,-999.0,-999,0.00,,,0.00,weatherlink.com 1.10,2013-11-30 04:21:00,
2013-11-29 21:36:00,-999.0,-99.9,30.16,North,-999,-999.0,-999.0,-999,0.00,,,0.00,weatherlink.com 1.10,2013-11-30 04:36:00,
2013-11-29 21:51:00,-999.0,-99.9,30.17,North,-999,-999.0,-999.0,-999,0.00,,,0.00,weatherlink.com 1.10,2013-11-30 04:51:00,
2013-11-29 22:07:00,-999.0,-99.9,30.16,North,-999,-999.0,-999.0,-999,0.00,,,0.00,weatherlink.com 1.10,2013-11-30 05:07:00,
2013-11-29 22:22:00,-999.0,-99.9,30.17,North,-999,-999.0,-999.0,-999,0.00,,,0.00,weatherlink.com 1.10,2013-11-30 05:22:00,
2013-11-29 22:37:00,-999.0,-99.9,30.17,North,-999,-999.0,-999.0,-999,0.00,,,0.00,weatherlink.com 1.10,2013-11-30 05:37:00,
2013-11-29 22:52:00,-999.0,-99.9,30.17,North,-999,-999.0,-999.0,-999,0.00,,,0.00,weatherlink.com 1.10,2013-11-30 05:52:00,
2013-11-29 23:07:00,-999.0,-99.9,30.17,North,-999,-999.0,-999.0,-999,0.00,,,0.00,weatherlink.com 1.10,2013-11-30 06:07:00,
2013-11-29 23:22:00,31.9,28.0,30.18,West,279,1.0,2.0,84,0.00,,,0.00,weatherlink.com 1.10,2013-11-30 06:22:00,
2013-11-29 23:37:00,31.9,28.0,30.18,West,279,0.0,0.0,84,0.00,,,0.00,weatherlink.com 1.10,2013-11-30 06:37:00,
2013-11-29 23:52:00,32.0,28.0,30.18,NE,43,0.0,3.0,84,0.00,,,0.00,weatherlink.com 1.10,2013-11-30 06:52:00,